Regional Weather Roundup
Issued by NWS Kansas City/Pleasant Hill, MO

Home | Current Version | Previous Version | Graphics & Text | Print | Product List | Glossary Off
Versions: 1 2 3 4 5 6 7 8 9 10 11 12 13 14 15 16 17 18 19 20 21 22 23 24 25 26 27 28 29 30 31 32 33 34 35 36 37 38 39 40 41 42 43 44 45 46 47 48 49 50

000
ASUS43 KEAX 260010
RWREAX

WEATHER ROUNDUP FOR EASTERN KANSAS AND NORTHWEST MISSOURI
NATIONAL WEATHER SERVICE KANSAS CITY/PLEASANT HILL MO
600 PM CST TUE NOV 25 2014

KSZ040-057-103>105-MOZ028-029-037-043-260100-
...KANSAS CITY METROPOLITAN AREA...

CITY           SKY/WX    TMP DP  RH WIND       PRES   REMARKS
K.C. INTL      MOCLDY    31  19  61 S9        30.07F WCI  23
6HR MIN TEMP:  31; 6HR MAX TEMP:  42;

K.C. DOWNTOWN  PTCLDY    38  18  44 S7        30.08F WCI  33
6HR MIN TEMP:  37; 6HR MAX TEMP:  44;

LEES SUMMIT    CLEAR     37  17  44 S6        30.09F WCI  32
6HR MIN TEMP:  36; 6HR MAX TEMP:  42;

OLATHE - IXD   MOCLDY    35  19  52 S8        30.07F WCI  29
6HR MIN TEMP:  34; 6HR MAX TEMP:  43;

OLATHE - OJC   FAIR      34  19  54 S7        30.07F WCI  28
6HR MIN TEMP:  34; 6HR MAX TEMP:  42;

LAWRENCE       MOCLDY    36  22  56 SE7       30.07F WCI  30

$$

MOZ001>008-011>017-020>025-030>033-038>040-044>046-053-054-260100-
...NORTHERN AND CENTRAL MISSOURI...

CITY           SKY/WX    TMP DP  RH WIND       PRES   REMARKS
ST. JOSEPH     MOCLDY    35  19  52 S9        30.06F WCI  28
6HR MIN TEMP:  34; 6HR MAX TEMP:  42;

MOSBY          PTCLDY    36  16  44 SE5       30.09F WCI  32
WARRENSBURG    CLEAR     36  14  41 S5        30.12S WCI  32
WHITEMAN AFB   CLEAR     32  17  53 S7        30.12S WCI  26
6HR MIN TEMP:  32; 6HR MAX TEMP:  42;

CLINTON        CLEAR     36  21  55 CALM      30.14S
SEDALIA        CLEAR     35  17  47 S5        30.13F WCI  31
6HR MIN TEMP:  34; 6HR MAX TEMP:  41;

WARSAW         NOT AVBL
MARSHALL       CLEAR     37  18  44 S6        30.13S WCI  33
CHILLICOTHE      N/A     32  17  54 S3        30.11S
6HR MIN TEMP:  32; 6HR MAX TEMP:  40;

MOBERLY        CLEAR     32  12  43 CALM      30.14
KIRKSVILLE     CLEAR     29  17  61 S6        30.11F WCI  23
6HR MIN TEMP:  29; 6HR MAX TEMP:  36;


$$

MOZ041-047>049-056>058-063>065-088>090-097-260100-
...EASTERN AND SOUTHERN MISSOURI...

CITY           SKY/WX    TMP DP  RH WIND       PRES   REMARKS
ST. LOUIS INTL PTCLDY    38  21  50 CALM      30.17R
6HR MIN TEMP:  36; 6HR MAX TEMP:  42;

SPIRIT OF STL  CLEAR     31  23  72 CALM      30.16R
COLUMBIA       CLEAR     35  14  42 W3        30.14R
JEFFERSON CITY CLEAR     33  18  53 CALM      30.15S
MEXICO         CLEAR     36  21  55 CALM      30.14R
ROLLA          CLEAR     28  20  71 CALM      30.12S
LEBANON        CLEAR     36  16  44 CALM      30.13S
OSAGE BEACH    CLEAR     34  16  47 CALM      30.13S
SPRINGFIELD    CLEAR     33  19  56 CALM      30.12S
BRANSON        PTCLDY    32  23  69 CALM      30.15
NEVADA         CLEAR     32  19  59 S6        30.13F WCI  26
JOPLIN         CLEAR     38  19  46 SW5       30.14S WCI  34
WEST PLAINS    CLEAR     32  19  58 CALM      30.15R

$$

IAZ060-094-KSZ022-034>040-054-083-096-NEZ052-066-093-260100-
...KANSAS...SOUTHEAST NEBRASKA AND IOWA...

CITY           SKY/WX    TMP DP  RH WIND       PRES   REMARKS
TOPEKA         MOCLDY    40  24  53 SE6       30.05F
6HR MIN TEMP:  40; 6HR MAX TEMP:  48;

MANHATTAN      CLOUDY    46  25  43 S8        30.00S
EMPORIA        MOCLDY    39  23  52 S9        30.04F WCI  33
CHANUTE        PTCLDY    37  23  56 SE7       30.09F WCI  32
WICHITA        CLOUDY    43  27  53 S8        30.03F
OMAHA          CLOUDY    39  24  55 SE15      29.96F WCI  31
LINCOLN        CLOUDY    42  25  50 S9        29.94S
FALLS CITY     MOCLDY    36  23  59 SE10      30.01S WCI  28
LAMONI         CLEAR     31  16  54 S7        30.05F WCI  24
DES MOINES     MOCLDY    33   8  35 SE8       30.05F WCI  26

$$



USA.gov is the U.S. government's official web portal to all federal, state and local government web resources and services.